Weather History for KLAM - September, 2013

Change the Weather History Date:

Thursday, September 5, 2013

  Actual Average Record
Temperature  
Mean Temperature 73 °F -  
Max Temperature 82 °F 74 °F 88 °F (1952)
Min Temperature 64 °F 50 °F 38 °F (1961)
Cooling Degree Days 8    
Growing Degree Days 23 (Base 50)    
Moisture  
Dew Point 34 °F    
Average Humidity 25    
Maximum Humidity 37    
Minimum Humidity 16    
Precipitation  
Precipitation 0.00 in - - ()
Sea Level Pressure  
Sea Level Pressure 30.43 in    
Wind  
Wind Speed 6 mph (South)    
Max Wind Speed 17 mph    
Max Gust Speed 23 mph    
Visibility 10 miles    
Events      
Averages and records for this station are not official NWS values.
T = Trace of Precipitation, MM = Missing Value Source: NWS Daily Summary

Daily Weather History Graph

Daily Weather History Graph

Search for Another Location

Airport or City:

Trip Planner

Search our weather history database for the weather conditions in past years. The results will help you decide how hot, cold, wet, or windy it might be!

Date:

Astronomy

Sep. 05, 2013 Rise Set
Actual Time 6:40 AM MDT 7:26 PM MDT
Civil Twilight 6:14 AM MDT 7:52 PM MDT
Nautical Twilight 5:43 AM MDT 8:22 PM MDT
Astronomical Twilight 5:12 AM MDT 8:54 PM MDT
Moon 6:52 AM MDT 7:22 PM MDT
Length of Visible Light 13h 38m
Length of Day
12h 46m
New Moon, 0% of the Moon is Illuminated
Sep 5
New Moon
Sep 12
First Quarter
Sep 19
Full
Sep 26
Last Quarter
Oct 4
New

Hourly Weather History & Observations

Time (MDT) Temp. Dew Point Humidity Pressure Visibility Wind Dir Wind Speed Gust Speed Precip Events Conditions
12:15 AM 67.8 °F 37.6 °F 33% 30.46 in 10.0 mi SW 6.9 mph - N/A   Clear
12:35 AM 68.0 °F 36.9 °F 32% 30.45 in 10.0 mi SW 6.9 mph - N/A   Clear
12:55 AM 68.0 °F 35.2 °F 30% 30.46 in 10.0 mi SW 8.1 mph - N/A   Clear
1:15 AM 68.2 °F 34.2 °F 28% 30.45 in 10.0 mi SW 8.1 mph - N/A   Clear
1:35 AM 67.6 °F 34.0 °F 29% 30.46 in 10.0 mi SW 6.9 mph - N/A   Clear
1:55 AM 67.6 °F 33.8 °F 29% 30.45 in 10.0 mi SW 8.1 mph - N/A   Clear
2:15 AM 67.6 °F 34.0 °F 29% 30.45 in 10.0 mi SW 9.2 mph - N/A   Clear
2:35 AM 67.3 °F 34.2 °F 29% 30.45 in 10.0 mi SW 9.2 mph - N/A   Clear
2:55 AM 67.8 °F 34.5 °F 29% 30.45 in 10.0 mi SW 6.9 mph - N/A   Clear
3:15 AM 67.5 °F 35.1 °F 30% 30.44 in 10.0 mi SW 9.2 mph - N/A   Clear
3:35 AM 66.7 °F 35.6 °F 32% 30.44 in 10.0 mi WSW 8.1 mph - N/A   Clear
3:55 AM 66.2 °F 36.5 °F 33% 30.44 in 10.0 mi SW 8.1 mph - N/A   Clear
4:15 AM 66.4 °F 36.5 °F 33% 30.44 in 10.0 mi SW 8.1 mph - N/A   Clear
4:35 AM 66.4 °F 36.5 °F 33% 30.44 in 10.0 mi SW 8.1 mph - N/A   Clear
4:55 AM 66.2 °F 36.5 °F 33% 30.44 in 10.0 mi SW 4.6 mph - N/A   Clear
5:15 AM 66.2 °F 36.5 °F 33% 30.44 in 10.0 mi WSW 4.6 mph - N/A   Clear
5:35 AM 65.8 °F 36.5 °F 34% 30.44 in 10.0 mi Calm Calm - N/A   Clear
5:55 AM 65.7 °F 36.5 °F 34% 30.45 in 10.0 mi Calm Calm - N/A   Clear
6:15 AM 65.5 °F 36.5 °F 34% 30.45 in 10.0 mi Calm Calm - N/A   Clear
6:35 AM 64.2 °F 37.0 °F 37% 30.45 in 10.0 mi Calm Calm - N/A   Clear
6:55 AM 64.4 °F 36.9 °F 36% 30.45 in 10.0 mi Calm Calm - N/A   Clear
7:15 AM 64.4 °F 37.0 °F 36% 30.45 in 10.0 mi Calm Calm - N/A   Clear
7:35 AM 65.3 °F 36.7 °F 35% 30.46 in 10.0 mi Calm Calm - N/A   Clear
7:55 AM 66.2 °F 37.2 °F 34% 30.46 in 10.0 mi Calm Calm - N/A   Clear
8:15 AM 66.6 °F 37.0 °F 34% 30.46 in 10.0 mi Calm Calm - N/A   Clear
8:35 AM 67.1 °F 37.9 °F 34% 30.46 in 10.0 mi Calm Calm - N/A   Clear
8:55 AM 67.8 °F 37.4 °F 33% 30.46 in 10.0 mi Calm Calm - N/A   Clear
9:15 AM 68.2 °F 37.4 °F 32% 30.46 in 10.0 mi NE 3.5 mph - N/A   Clear
9:35 AM 70.2 °F 37.4 °F 30% 30.47 in 10.0 mi East 5.8 mph - N/A   Clear
9:55 AM 71.4 °F 37.8 °F 29% 30.47 in 10.0 mi NE 4.6 mph - N/A   Clear
10:15 AM 72.3 °F 37.6 °F 28% 30.47 in 10.0 mi East 4.6 mph - N/A   Clear
10:35 AM 72.3 °F 37.4 °F 28% 30.47 in 10.0 mi Calm Calm - N/A   Clear
10:55 AM 73.0 °F 37.2 °F 27% 30.47 in 10.0 mi ESE 3.5 mph - N/A   Clear
11:15 AM 74.5 °F 36.9 °F 26% 30.47 in 10.0 mi South 5.8 mph - N/A   Clear
11:35 AM 76.3 °F 36.0 °F 23% 30.46 in 10.0 mi SSE 3.5 mph - N/A   Clear
11:55 AM 77.2 °F 34.3 °F 21% 30.45 in 10.0 mi SSE 4.6 mph - N/A   Clear
12:15 PM 77.5 °F 33.3 °F 20% 30.45 in 10.0 mi South 6.9 mph 19.6 mph N/A   Clear
12:35 PM 79.0 °F 32.7 °F 19% 30.45 in 10.0 mi SE 9.2 mph 16.1 mph N/A   Clear
12:55 PM 79.5 °F 31.8 °F 18% 30.45 in 10.0 mi SSW 12.7 mph 18.4 mph N/A   Clear
1:15 PM 79.3 °F 32.0 °F 18% 30.44 in 10.0 mi SE 6.9 mph - N/A   Clear
1:35 PM 79.7 °F 32.0 °F 18% 30.43 in 10.0 mi South 10.4 mph - N/A   Clear
1:55 PM 80.4 °F 32.0 °F 17% 30.43 in 10.0 mi SSE 17.3 mph 23.0 mph N/A   Clear
2:15 PM 81.0 °F 32.2 °F 17% 30.43 in 10.0 mi South 6.9 mph 19.6 mph N/A   Clear
2:35 PM 81.7 °F 32.4 °F 17% 30.41 in 10.0 mi SSE 12.7 mph 18.4 mph N/A   Clear
2:55 PM 81.3 °F 32.4 °F 17% 30.41 in 10.0 mi SSW 3.5 mph 20.7 mph N/A   Clear
3:15 PM 81.0 °F 32.0 °F 17% 30.40 in 10.0 mi South 10.4 mph - N/A   Clear
3:35 PM 81.5 °F 32.0 °F 17% 30.39 in 10.0 mi South 8.1 mph - N/A   Clear
3:55 PM 81.1 °F 32.0 °F 17% 30.39 in 10.0 mi SW 4.6 mph - N/A   Clear
4:15 PM 82.4 °F 32.4 °F 16% 30.39 in 10.0 mi South 8.1 mph 16.1 mph N/A   Clear
4:35 PM 82.8 °F 32.5 °F 16% 30.38 in 10.0 mi SE 11.5 mph 18.4 mph N/A   Clear
4:55 PM 82.2 °F 32.5 °F 17% 30.38 in 10.0 mi SSE 12.7 mph 19.6 mph N/A   Clear
5:15 PM 81.9 °F 32.5 °F 17% 30.38 in 10.0 mi SSE 8.1 mph - N/A   Clear
5:35 PM 81.7 °F 32.0 °F 17% 30.38 in 10.0 mi SSE 6.9 mph - N/A   Clear
5:55 PM 81.5 °F 32.0 °F 17% 30.38 in 10.0 mi South 9.2 mph 16.1 mph N/A   Clear
6:15 PM 80.8 °F 32.0 °F 17% 30.38 in 10.0 mi South 9.2 mph 17.3 mph N/A   Clear
6:35 PM 80.2 °F 32.0 °F 17% 30.37 in 10.0 mi South 6.9 mph 17.3 mph N/A   Clear
6:55 PM 79.7 °F 32.0 °F 18% 30.37 in 10.0 mi SSW 9.2 mph - N/A   Clear
7:15 PM 78.8 °F 32.0 °F 18% 30.38 in 10.0 mi South 9.2 mph - N/A   Clear
7:35 PM 77.9 °F 31.6 °F 19% 30.38 in 10.0 mi South 5.8 mph - N/A   Clear
7:55 PM 77.0 °F 31.1 °F 19% 30.38 in 10.0 mi South 4.6 mph - N/A   Clear
8:15 PM 75.7 °F 31.1 °F 19% 30.39 in 10.0 mi South 5.8 mph - N/A   Clear
8:35 PM 75.2 °F 31.1 °F 20% 30.40 in 10.0 mi South 5.8 mph - N/A   Clear
8:55 PM 74.3 °F 31.3 °F 21% 30.41 in 10.0 mi South 5.8 mph - N/A   Clear
9:15 PM 73.4 °F 31.5 °F 21% 30.41 in 10.0 mi South 5.8 mph - N/A   Clear
9:35 PM 72.9 °F 31.6 °F 22% 30.42 in 10.0 mi South 6.9 mph - N/A   Clear
9:55 PM 72.7 °F 31.8 °F 22% 30.43 in 10.0 mi South 8.1 mph - N/A   Clear
10:15 PM 73.0 °F 31.8 °F 22% 30.43 in 10.0 mi South 8.1 mph - N/A   Clear
10:35 PM 72.7 °F 31.8 °F 22% 30.44 in 10.0 mi SSE 10.4 mph 18.4 mph N/A   Clear
10:55 PM 71.8 °F 32.0 °F 23% 30.44 in 10.0 mi South 8.1 mph - N/A   Clear
11:15 PM 70.7 °F 32.0 °F 24% 30.44 in 10.0 mi South 11.5 mph 17.3 mph N/A   Clear
11:35 PM 69.8 °F 32.2 °F 25% 30.45 in 10.0 mi South 10.4 mph - N/A   Clear
11:55 PM 68.4 °F 32.2 °F 26% 30.44 in 10.0 mi SSW 6.9 mph - N/A   Clear